VK4NB-13 Weather Reports


time (UTC)temp
C
wind
direction
speed
KPH
gust
KPH
rain 1hr
cm
rain 24hr
cm
rain mn
cm
humidity
%
barometer
mb
20260504224001 23 0 0.0 0.0 0.00 0.46 0.03 88 1017.0
20260504223522 23 0 0.0 0.0 0.00 0.46 0.03 90 1017.1
20260504223000 23 0 0.0 0.0 0.00 0.46 0.03 91 1017.0
20260504222501 22 0 0.0 0.0 0.00 0.46 0.03 91 1017.1
20260504222001 22 0 0.0 0.0 0.00 0.46 0.03 91 1017.1
20260504221501 23 0 0.0 0.0 0.00 0.46 0.03 92 1016.8
20260504221001 22 0 0.0 0.0 0.00 0.46 0.03 98 1017.2
20260504220501 21 0 0.0 0.0 0.00 0.46 0.03 99 1017.0
20260504220022 21 0 0.0 0.0 0.00 0.46 0.03 99 1017.0
20260504215522 21 0 0.0 0.0 0.00 0.46 0.03 99 1017.0
20260504215001 20 0 0.0 0.0 0.00 0.46 0.03 99 1017.0
20260504214522 20 0 0.0 0.0 0.00 0.46 0.03 99 1017.1
20260504214001 20 0 0.0 0.0 0.00 0.46 0.03 99 1017.0
20260504213502 20 0 0.0 0.0 0.00 0.46 0.03 99 1016.9
20260504213001 20 0 0.0 0.0 0.00 0.46 0.03 99 1017.0
20260504212522 20 0 0.0 0.0 0.00 0.46 0.03 99 1017.1
20260504212022 20 0 0.0 0.0 0.00 0.46 0.03 99 1016.8
20260504211522 19 0 0.0 0.0 0.00 0.46 0.03 99 1016.6
20260504211022 19 0 0.0 0.0 0.00 0.46 0.03 99 1016.7
20260504210522 19 0 0.0 0.0 0.00 0.46 0.03 99 1016.6
20260504210001 19 0 0.0 0.0 0.00 0.46 0.03 99 1016.6
20260504205501 19 0 0.0 0.0 0.00 0.46 0.03 99 1016.5
20260504205001 19 0 0.0 0.0 0.00 0.46 0.03 99 1016.2
20260504204501 18 0 0.0 0.0 0.00 0.46 0.03 99 1016.5
20260504204001 18 0 0.0 0.0 0.00 0.46 0.03 99 1016.2
20260504203523 17 0 0.0 0.0 0.00 0.46 0.03 99 1015.9
20260504203001 17 0 0.0 0.0 0.00 0.46 0.03 99 1016.0
20260504202501 17 0 0.0 0.0 0.00 0.46 0.03 99 1016.1
20260504202001 17 0 0.0 0.0 0.00 0.46 0.03 99 1015.9
20260504201522 17 0 0.0 0.0 0.00 0.46 0.03 99 1015.7
20260504201001 17 0 0.0 0.0 0.00 0.46 0.03 99 1015.8
20260504200501 17 0 0.0 0.0 0.00 0.46 0.03 99 1015.9
20260504200001 17 0 0.0 0.0 0.00 0.46 0.03 99 1015.8
20260504195501 17 0 0.0 0.0 0.00 0.46 0.03 99 1015.8
20260504195001 17 0 0.0 0.0 0.00 0.46 0.03 99 1015.7
20260504194501 17 0 0.0 0.0 0.00 0.46 0.03 99 1015.7
20260504194001 17 0 0.0 0.0 0.00 0.46 0.03 99 1015.7
20260504193502 17 0 0.0 0.0 0.00 0.46 0.03 99 1015.8
20260504193001 18 0 0.0 0.0 0.00 0.46 0.03 99 1015.7
20260504192501 18 0 0.0 0.0 0.00 0.46 0.03 99 1015.6
20260504192001 18 0 0.0 0.0 0.00 0.46 0.03 99 1015.6
20260504191501 18 0 0.0 0.0 0.00 0.46 0.03 99 1015.6
20260504191001 18 0 0.0 0.0 0.00 0.46 0.03 99 1015.6
20260504190501 18 0 0.0 0.0 0.00 0.46 0.03 99 1015.6
20260504190001 18 0 0.0 0.0 0.00 0.46 0.03 99 1015.4
20260504185501 18 0 0.0 0.0 0.00 0.46 0.03 99 1015.3
20260504185001 18 0 0.0 0.0 0.00 0.46 0.03 99 1015.1
20260504184501 18 0 0.0 0.0 0.00 0.46 0.03 99 1015.3
20260504184002 17 0 0.0 0.0 0.00 0.46 0.03 99 1015.2
20260504183502 17 0 0.0 0.0 0.00 0.46 0.03 99 1015.0
20260504183022 17 0 0.0 0.0 0.00 0.46 0.03 99 1014.8
20260504182501 17 0 0.0 0.0 0.00 0.46 0.03 99 1014.9
20260504182022 17 0 0.0 0.0 0.00 0.46 0.03 99 1015.0
20260504181501 17 0 0.0 0.0 0.00 0.46 0.03 99 1015.1
20260504181001 18 0 0.0 0.0 0.00 0.46 0.03 99 1015.1
20260504180522 18 0 0.0 0.0 0.00 0.46 0.03 99 1015.2
20260504180001 18 0 0.0 0.0 0.00 0.46 0.03 99 1014.9
20260504175501 18 0 0.0 0.0 0.03 0.46 0.03 99 1015.1
20260504175001 18 0 0.0 0.0 0.03 0.46 0.03 99 1015.1
20260504174501 17 0 0.0 0.0 0.03 0.46 0.03 99 1015.1
20260504174002 18 0 0.0 0.0 0.03 0.46 0.03 99 1015.2
20260504173523 18 0 0.0 0.0 0.03 0.46 0.03 99 1015.0
20260504173002 17 0 0.0 0.0 0.03 0.46 0.03 99 1015.2
20260504172501 17 0 0.0 0.0 0.03 0.46 0.03 99 1015.2
20260504172002 17 0 0.0 0.0 0.03 0.46 0.03 99 1015.2
20260504171501 18 0 0.0 0.0 0.03 0.46 0.03 99 1015.2
20260504171023 17 0 0.0 0.0 0.03 0.46 0.03 99 1015.3
20260504170523 17 0 0.0 0.0 0.03 0.46 0.03 99 1015.2
20260504151002 18 0 0.0 0.0 0.00 0.48 0.00 99 1016.0
20260504150501 18 0 0.0 0.0 0.00 0.48 0.00 99 1016.0
20260504141023 18 0 0.0 0.0 0.00 0.48 0.00 99 1016.2
20260504140502 18 0 0.0 0.0 0.00 0.48 0.00 99 1016.2
20260504130502 19 0 0.0 0.0 0.00 0.48 0.48 99 1016.5
20260504110502 20 0 0.0 0.0 0.00 0.51 0.48 95 1017.1
20260504100502 20 0 0.0 0.0 0.15 0.51 0.48 93 1016.8
20260504082002 21 0 0.0 0.0 0.13 0.23 0.18 90 1015.6
20260504081502 22 0 0.0 0.0 0.13 0.28 0.18 88 1015.6
20260504081003 22 0 0.0 0.0 0.13 0.36 0.18 88 1015.7
20260504080503 22 0 0.0 0.0 0.13 0.43 0.18 88 1015.5
20260504050503 26 0 0.0 0.0 0.00 0.38 0.05 65 1014.4
20260504050003 26 0 0.0 0.0 0.00 0.38 0.05 66 1014.4
20260504045524 26 112 0.0 3.2 0.00 0.38 0.05 70 1014.5
20260504045003 26 112 0.0 3.2 0.00 0.43 0.05 71 1014.5
20260504044524 26 157 0.0 3.2 0.00 0.48 0.05 69 1014.5
20260504044004 26 157 0.0 3.2 0.00 0.48 0.05 70 1014.7
20260504043504 26 0 0.0 0.0 0.00 0.48 0.05 73 1014.4
20260504043004 26 0 0.0 0.0 0.00 0.48 0.05 71 1014.8
20260504042503 26 0 0.0 0.0 0.00 0.48 0.05 72 1014.7
20260504042003 26 0 0.0 0.0 0.00 0.48 0.05 74 1014.5
20260504041503 26 0 0.0 0.0 0.00 0.48 0.05 73 1014.7
20260504041003 27 0 0.0 0.0 0.00 0.48 0.05 72 1014.7
20260504040524 26 0 0.0 0.0 0.00 0.48 0.05 72 1014.7
20260504040024 27 0 0.0 0.0 0.00 0.48 0.05 70 1014.5
20260504035503 27 0 0.0 0.0 0.00 0.48 0.05 75 1014.8
20260504035003 27 0 0.0 0.0 0.00 0.51 0.05 72 1014.6
20260504034503 27 0 0.0 0.0 0.00 0.51 0.05 71 1014.7
20260504034003 27 45 0.0 3.2 0.00 0.51 0.05 71 1014.4
20260504033504 27 45 0.0 3.2 0.00 0.51 0.05 74 1014.6
20260504033004 26 0 0.0 0.0 0.00 0.51 0.05 74 1014.8
20260504032524 26 90 0.0 6.4 0.00 0.51 0.05 75 1015.1
20260504032024 26 90 0.0 6.4 0.00 0.51 0.05 77 1015.1
20260504031503 26 0 0.0 0.0 0.00 0.51 0.05 76 1014.9
20260504031003 26 0 0.0 0.0 0.00 0.51 0.05 74 1015.2
20260504030503 25 0 0.0 0.0 0.00 0.51 0.05 76 1015.2
20260504030024 26 85 0.0 3.2 0.00 0.51 0.05 74 1015.2
20260504025503 27 85 0.0 3.2 0.00 0.51 0.05 74 1015.1
20260504025003 27 0 0.0 0.0 0.00 0.51 0.05 74 1015.5
20260504024503 26 0 0.0 0.0 0.00 0.51 0.05 74 1015.6
20260504024003 27 0 0.0 0.0 0.00 0.51 0.05 74 1015.6
20260504023504 26 112 0.0 3.2 0.00 0.51 0.05 77 1015.7
20260504023004 26 112 0.0 3.2 0.00 0.51 0.05 75 1015.8
20260504022503 26 112 0.0 3.2 0.00 0.51 0.05 76 1015.7
20260504022003 25 95 0.0 3.2 0.00 0.51 0.05 77 1015.9
20260504021503 26 101 0.0 3.2 0.00 0.51 0.05 77 1015.9
20260504021003 26 101 0.0 3.2 0.00 0.51 0.05 77 1016.0
20260504020503 27 67 0.0 3.2 0.00 0.51 0.05 75 1016.0
20260504020003 26 0 0.0 0.0 0.00 0.51 0.05 77 1016.2
20260504015503 27 135 0.0 3.2 0.00 0.51 0.05 77 1016.4
20260504015003 26 135 0.0 3.2 0.00 0.51 0.05 75 1016.3
20260504014503 26 0 0.0 0.0 0.00 0.51 0.05 78 1016.5
20260504014004 26 0 0.0 0.0 0.00 0.51 0.05 80 1016.6
20260504013504 25 0 0.0 0.0 0.00 0.51 0.05 80 1016.8
20260504013004 25 0 0.0 0.0 0.00 0.51 0.05 80 1016.9
20260504012503 25 90 0.0 3.2 0.00 0.51 0.05 81 1016.7
20260504012003 25 90 0.0 3.2 0.00 0.51 0.05 80 1016.6
20260504011503 25 157 0.0 3.2 0.00 0.51 0.05 81 1016.9
20260504011003 26 157 0.0 3.2 0.00 0.51 0.05 82 1017.1
20260504010503 25 0 0.0 0.0 0.00 0.51 0.05 81 1017.1
20260504010001 25 0 0.0 0.0 0.00 0.51 0.05 80 1017.3
20260504005500 25 0 0.0 0.0 0.00 0.51 0.05 83 1017.3
20260504005000 25 103 0.0 3.2 0.00 0.51 0.05 83 1017.3
20260504004501 25 103 0.0 3.2 0.00 0.51 0.05 84 1017.5
20260504004000 25 0 0.0 0.0 0.00 0.51 0.05 86 1017.6
20260504003501 25 90 0.0 3.2 0.00 0.51 0.05 84 1017.6
20260504003022 25 90 0.0 3.2 0.00 0.51 0.05 84 1017.4
20260504002501 25 90 0.0 3.2 0.00 0.51 0.05 86 1017.4
20260504002001 25 120 0.0 3.2 0.00 0.51 0.05 85 1017.5
20260504001501 24 120 0.0 3.2 0.00 0.51 0.05 86 1017.3
20260504001001 25 0 0.0 0.0 0.00 0.51 0.05 86 1017.4
20260504000501 25 0 0.0 0.0 0.00 0.51 0.05 86 1017.5
20260504000022 24 90 0.0 3.2 0.00 0.51 0.05 87 1017.5
20260503235501 24 78 0.0 3.2 0.00 0.51 0.05 85 1017.4
20260503235001 25 67 0.0 3.2 0.00 0.51 0.05 85 1017.6
20260503234522 24 0 0.0 0.0 0.00 0.51 0.05 86 1017.5
20260503234001 25 157 0.0 3.2 0.00 0.51 0.05 87 1017.5
20260503233502 25 157 0.0 3.2 0.00 0.51 0.05 87 1017.6
20260503233002 25 90 0.0 3.2 0.00 0.51 0.05 86 1017.5
20260503232522 24 90 0.0 3.2 0.00 0.51 0.05 88 1017.7
20260503232001 24 86 0.0 6.4 0.00 0.51 0.05 87 1017.7
20260503231501 24 77 0.0 6.4 0.00 0.51 0.05 90 1017.4
20260503231022 24 67 0.0 6.4 0.00 0.51 0.05 89 1017.5
20260503230522 24 0 0.0 0.0 0.00 0.51 0.05 90 1017.6
20260503230001 24 112 0.0 3.2 0.00 0.51 0.05 89 1017.6
20260503225522 23 112 0.0 3.2 0.00 0.51 0.05 89 1017.6
20260503225001 23 90 0.0 3.2 0.00 0.51 0.05 90 1017.5
20260503224502 23 90 0.0 3.2 0.00 0.51 0.05 91 1017.7